{"data":{"norad_id":65898,"epoch":"2026-05-25T00:21:00.010080Z","epoch_age_seconds":83846,"freshness":"FRESH","line1":"1 65898U 25224S   26145.01458345  .00015104  00000+0  45729-3 0  9999","line2":"2 65898  53.1597  15.8528 0000870 104.9183 255.1916 15.34398191 36572","mean_motion":15.34398191,"eccentricity":8.7e-5,"inclination_deg":53.1597,"raan_deg":15.8528,"arg_perigee_deg":104.9183,"mean_anomaly_deg":255.1916,"bstar":0.00045729,"rev_number":3657,"period_min":93.847868724449,"perigee_km":462.11346337294,"apogee_km":463.30377051029,"semimajor_km":6840.8456169416,"source":"CELESTRAK","updated_at":"2026-05-25T13:38:20.982336Z"}}